Location: Abraham Lincoln Continuation High School
(33.9711°N, 117.3662°W)
Time: 13:20:31
(UTC+00:00)

Cosmos 1980 Rocket - Pass Details

Date: 21 September 2020
Orbit: 831 x 848 km, 71.0° (Epoch: 29 October)

Event Time Altitude Azimuth Distance (km) Brightness Sun altitude
Exits shadow 10:34:53 27° 21° (NNE) 1,579 3.9 -36.9°
Drops below altitude 10° 10:37:19 10° 21° (NNE) 2,466 5.1 -36.5°
Sets 10:39:46 0° 21° (NNE) 3,402 6.0 -36.1°
